Regional Weather Roundup
Issued by NWS Charleston, WV

Home | Current Version | Previous Version | Text Only | Print | Product List | Glossary Off
Versions: 1 2 3 4 5 6 7 8 9 10 11 12 13 14 15 16 17 18 19 20 21 22 23 24 25 26 27 28 29 30 31 32 33 34 35 36 37 38 39 40 41 42 43 44 45 46 47 48

000
ASUS41 KRLX 211710
RWRRLX
West Virginia Regional Weather Roundup
National Weather Service Charleston WV
1200 PM EST SAT JAN 21 2017

Note: "fair" indicates few or no clouds below 12,000 feet with no
significant weather and/or obstructions to visibility.

WVZ003-211800-
Northern Panhandle of West Virginia

CITY           SKY/WX    TMP DP  RH WIND       PRES   REMARKS
WHEELING       CLOUDY    61  49  64 SW9       29.75F
$$

WVZ009-211800-
Northwest West Virginia

CITY           SKY/WX    TMP DP  RH WIND       PRES   REMARKS
PARKERSBURG    MOSUNNY   62  50  64 S5        29.78F
$$

WVZ006-211800-
Western West Virginia

CITY           SKY/WX    TMP DP  RH WIND       PRES   REMARKS
HUNTINGTON     CLOUDY    61  50  67 S9        29.75F
$$

WVZ015-211800-
West Central West Virginia

CITY           SKY/WX    TMP DP  RH WIND       PRES   REMARKS
CHARLESTON     CLOUDY    64  50  60 S9        29.77F
$$

WVZ022-031-211800-
North Central West Virginia

CITY           SKY/WX    TMP DP  RH WIND       PRES   REMARKS
CLARKSBURG     SUNNY     63  49  60 SW8       29.77F
MORGANTOWN     MOSUNNY   64  49  57 S7        29.78F
$$

WVZ025-035-042-045-211800-
Southern West Virginia

CITY           SKY/WX    TMP DP  RH WIND       PRES   REMARKS
BECKLEY        CLOUDY    58  49  72 S6        29.83F
LOGAN            N/A     59  50  72 CALM      29.80S
BLUEFIELD      MOSUNNY   56  46  69 S6        29.86F
LEWISBURG      CLOUDY    46  46  99 CALM      29.85F FOG
$$

WVZ047-211800-
Northern Mountains of West Virginia

CITY           SKY/WX    TMP DP  RH WIND       PRES   REMARKS
ELKINS         SUNNY     60  48  64 CALM      29.80F
$$

WVZ052-211800-
Eastern Panhandle of West Virginia

CITY           SKY/WX    TMP DP  RH WIND       PRES   REMARKS
MARTINSBURG    FOG       43  42  97 CALM      29.86F VSB 1/2
PETERSBURG     SUNNY     50  46  88 CALM      29.81F
$$




USA.gov is the U.S. government's official web portal to all federal, state and local government web resources and services.